Wind_Speed
30 30 28 28 29 29 30 31 30 36 41 40 34 47 50 49 56 38 5 17 14 10 12 10 12 22 14 20 8 13 8 3 4 3 3 3 1 4 2 2 5 6 7 3 3 2 5 6 6 2 5 8 10 11
25 25 25 26 29 30 34 34 38 34 28 37 41 43 46 53 48 24 7 15 15 11 9 10 15 15 16 11 14 19 4 14 10 5 1 3 2 1 2 3 3 4 4 1 6 1 5 5 4 4 7 9 11 12
25 29 25 23 27 33 37 28 32 38 37 37 39 40 45 56 46 15 6 16 12 9 10 9 7 8 15 15 17 8 6 8 8 4 6 2 3 4 4 4 2 3 2 2 1 3 1 4 5 3 7 10 12 14
25 23 20 25 27 33 39 37 32 32 34 36 37 40 46 53 45 10 3 16 10 9 5 4 4 3 9 12 15 12 14 15 15 8 4 3 3 5 3 2 3 3 6 4 5 9 4 1 6 8 11 11 10 11
34 36 35 33 29 28 27 28 29 30 32 34 36 39 46 50 41 16 13 15 16 4 5 9 9 5 5 9 9 10 12 15 11 5 2 2 4 4 2 0 3 2 1 3 3 5 4 8 10 9 8 9 9 9
29 28 28 25 22 23 24 27 29 31 33 34 36 39 45 46 28 20 7 9 12 8 7 4 4 6 9 12 13 13 11 8 6 5 4 4 3 3 3 4 5 3 1 1 4 8 4 4 8 10 11 12 13 15
33 31 28 26 22 20 25 29 30 32 33 35 37 43 46 36 17 7 6 10 9 11 4 5 5 3 6 6 6 7 7 5 4 5 3 4 4 5 2 4 6 1 1 1 5 6 8 11 8 10 11 13 11 14
33 32 31 29 29 29 29 31 34 33 35 37 40 42 47 30 13 8 14 14 11 6 3 4 3 5 3 3 4 3 3 4 7 4 3 3 4 1 3 6 4 5 8 7 7 9 10 10 10 12 13 16 20 23
33 32 32 34 34 35 33 35 35 36 39 41 42 44 30 15 7 10 16 9 9 3 2 3 5 4 4 4 4 3 3 3 2 2 2 3 2 2 4 5 5 6 4 6 10 11 11 12 14 15 17 18 18 15
34 30 27 30 30 34 38 39 38 37 36 37 32 16 8 8 22 16 9 5 1 3 5 4 3 4 3 3 3 3 3 3 3 2 4 2 2 6 4 4 2 2 4 10 12 12 14 16 16 15 12 10 9 8
29 30 27 23 25 22 21 24 27 32 35 18 7 5 18 22 14 4 2 1 1 3 5 4 4 6 3 3 3 2 2 1 3 3 3 3 3 5 6 5 4 5 8 9 14 16 15 15 13 11 8 6 4 4
22 22 23 20 18 15 14 18 17 19 13 12 21 24 12 3 4 4 1 1 3 2 2 3 4 5 4 4 4 3 3 2 3 8 2 3 3 11 12 12 14 17 19 19 16 15 12 10 7 6 5 5 5 5
12 12 13 18 17 16 10 17 21 24 24 17 7 5 3 5 5 3 3 2 3 2 3 5 4 4 4 5 5 2 3 2 5 2 2 2 14 18 18 18 16 14 14 13 12 9 9 8 7 7 5 6 7 4
15 13 9 10 11 14 19 19 12 12 10 7 6 5 4 3 4 3 3 3 2 5 10 10 5 3 3 3 0 2 1 2 3 4 3 4 18 24 20 16 15 13 14 10 9 8 7 6 6 6 5 4 3 5
15 8 7 11 13 13 12 11 14 10 7 8 6 4 4 3 5 3 5 5 6 8 8 6 5 4 2 3 2 3 3 3 3 0 3 15 24 24 22 16 14 13 11 8 7 6 6 6 5 4 2 2 5 9
16 17 17 16 11 9 10 11 13 8 6 5 6 3 3 4 4 6 10 8 6 6 5 4 3 2 2 3 3 3 3 2 3 3 13 21 26 22 17 15 12 9 8 8 8 6 6 6 5 3 3 6 9 12
13 20 16 17 17 14 10 10 9 9 6 5 5 10 9 10 5 4 5 4 4 3 2 1 2 3 3 2 3 1 2 3 9 12 15 19 21 21 19 15 11 9 9 8 7 6 5 5 3 3 3 8 11 12
17 13 11 12 16 18 19 14 7 6 6 8 4 7 11 9 7 8 7 7 6 3 3 2 2 2 1 2 3 3 5 13 13 15 15 15 16 16 13 10 10 9 10 8 6 5 4 2 1 3 6 10 11 11
12 10 8 5 5 5 6 7 7 5 7 5 8 11 11 11 14 12 10 10 9 7 4 2 1 2 3 6 5 9 12 14 17 18 17 16 14 14 12 13 13 9 6 6 5 4 2 2 3 5 8 12 13 12
11 9 5 2 4 6 6 6 6 6 4 4 7 7 5 5 7 11 13 11 8 4 7 4 4 5 6 6 7 9 11 17 17 14 11 11 13 13 10 8 8 8 6 4 4 3 1 1 6 9 13 15 13 14
8 7 7 7 17 13 7 5 7 5 4 5 5 5 5 7 7 8 8 10 8 6 5 7 7 7 8 7 6 10 11 11 11 9 12 13 11 10 9 8 8 7 5 3 2 2 3 5 9 12 14 13 15 14
10 7 11 12 8 7 7 10 6 4 4 4 4 4 5 4 5 6 6 7 6 7 7 7 6 5 6 10 10 7 8 10 10 11 14 15 12 10 8 6 6 5 4 2 1 4 6 9 12 14 14 15 14 13
9 11 10 9 7 7 4 5 4 4 2 2 2 2 3 4 5 5 4 6 6 11 9 8 6 5 6 7 9 10 9 7 9 10 11 12 11 10 8 7 6 4 1 3 5 7 9 12 13 15 14 14 13 13
11 7 7 7 8 4 4 5 4 3 4 2 2 2 3 3 3 3 3 5 8 10 11 9 6 6 6 6 8 10 10 9 11 11 10 8 8 7 5 3 2 1 3 5 7 9 11 12 14 13 15 15 13 13
6 10 6 6 6 4 3 3 4 3 3 2 1 3 2 2 1 3 3 4 9 11 11 11 9 9 9 8 8 7 6 6 5 6 8 6 5 4 3 1 3 4 6 8 9 11 13 15 15 15 16 13 13 14
7 10 6 5 4 4 4 2 3 4 3 2 3 2 1 0 2 3 3 6 7 9 10 10 8 6 6 5 4 4 5 5 3 2 4 5 5 3 2 1 2 6 12 14 15 16 16 16 16 16 15 13 14 14
5 6 6 6 3 3 4 4 3 3 3 3 2 2 1 1 3 4 4 7 4 6 7 7 7 7 6 5 4 3 3 2 2 4 3 2 2 2 3 4 7 12 15 17 17 17 16 16 15 14 14 13 13 13
5 6 4 5 5 5 3 3 3 4 3 5 4 3 3 5 4 3 3 4 4 4 5 6 5 4 4 5 4 4 4 5 4 4 5 5 6 8 9 12 15 15 16 16 16 17 16 16 15 13 13 14 14 12
5 5 3 4 3 4 5 4 3 4 6 5 4 2 3 4 2 3 2 2 2 2 3 4 6 6 5 4 4 4 4 5 4 4 5 4 5 8 16 17 16 16 16 16 16 17 16 15 15 15 15 15 14 14
4 6 2 3 2 2 3 5 4 3 6 5 4 5 6 5 5 4 3 3 3 3 3 3 3 3 4 4 5 5 5 7 8 9 9 9 11 16 16 14 14 14 16 15 15 15 15 15 14 12 12 12 11 13
3 4 2 3 3 3 3 4 3 3 3 5 7 7 6 5 4 5 4 5 4 3 4 5 4 4 4 4 5 6 7 11 13 14 14 15 15 14 13 15 15 15 16 15 16 15 15 15 13 12 12 13 14 15
4 4 3 2 3 3 4 2 1 1 2 2 3 3 4 3 3 2 4 7 5 5 4 4 4 4 5 7 9 10 12 14 16 17 16 16 16 16 16 16 16 17 16 17 17 16 15 15 15 14 14 14 14 15
3 3 3 2 1 1 3 3 1 2 3 3 3 3 3 3 3 1 3 4 4 4 4 3 4 6 9 11 13 15 16 17 18 18 18 18 18 18 17 17 17 17 18 18 17 16 15 15 15 14 15 15 14 14
Wind_Direction
184 188 197 204 207 209 204 211 205 184 187 196 186 170 177 179 184 194 219 165 171 124 134 174 186 195 190 193 155 141 138 161 170 159 178 176 144 200 212 178 177 174 167 188 177 205 269 132 139 306 12 322 334 324
187 192 199 207 213 209 205 183 180 188 180 161 166 171 174 181 182 188 205 149 137 137 130 143 158 165 186 203 192 170 222 157 174 156 144 104 136 47 336 222 179 211 221 239 207 199 98 180 344 319 315 313 320 317
189 200 204 187 174 173 173 178 157 156 159 161 167 171 175 183 180 161 159 144 145 110 115 135 135 173 186 170 156 156 186 158 169 159 144 121 150 175 165 232 154 209 154 225 307 114 264 297 306 338 340 326 317 313
175 166 177 174 146 139 147 161 157 154 160 165 171 174 177 181 182 147 172 160 160 123 113 109 145 167 183 179 178 162 164 167 157 137 120 132 130 216 191 309 222 12 161 232 242 290 331 117 36 347 327 326 325 323
116 119 119 130 143 144 142 146 154 161 165 168 170 171 174 181 181 190 177 154 155 127 130 133 120 56 117 153 161 169 162 153 150 127 114 140 122 132 100 124 199 208 38 213 228 40 346 325 0 353 4 11 12 13
118 114 114 115 123 137 149 157 161 165 167 169 170 171 174 176 173 153 172 168 153 125 114 134 113 83 92 105 111 125 136 137 156 118 117 115 142 186 157 196 103 98 69 339 314 328 332 8 54 47 64 62 67 75
102 99 98 100 102 129 150 155 157 160 163 164 166 167 167 160 160 204 181 151 205 183 115 112 121 117 115 122 91 95 100 117 118 112 84 134 131 174 172 198 128 66 332 72 359 340 125 51 69 77 78 80 79 85
103 101 97 96 90 88 122 134 145 148 152 155 156 159 163 171 177 117 128 169 213 177 170 117 103 124 80 100 99 59 88 104 49 95 103 115 110 97 186 107 97 44 104 64 59 71 94 100 91 89 98 103 99 99
103 99 88 92 93 93 100 112 124 134 140 144 148 154 152 161 152 119 128 225 214 157 123 99 135 148 121 84 84 62 74 73 78 87 117 138 152 169 106 138 100 61 75 115 98 97 103 111 113 113 111 105 103 100
102 104 102 97 99 102 106 111 118 126 132 137 130 137 136 119 119 121 115 238 5 18 61 86 98 113 134 128 89 97 52 137 153 95 126 52 104 116 120 124 88 73 124 147 116 112 120 115 118 119 109 101 95 95
99 102 113 122 96 85 109 122 121 129 134 129 116 87 129 130 138 169 173 81 87 69 44 76 81 122 70 122 116 43 105 125 162 148 209 161 181 158 152 126 102 97 109 146 129 115 118 123 127 117 111 98 78 51
99 104 110 114 113 79 99 111 127 136 125 121 124 129 147 137 93 80 30 2 44 96 78 92 91 102 98 103 104 132 106 149 160 148 185 208 120 148 141 126 116 114 114 116 119 121 120 117 116 115 104 87 75 60
105 115 122 124 125 120 108 138 92 105 110 110 88 82 24 6 63 110 166 84 97 97 113 134 93 87 96 89 80 109 163 133 152 156 215 61 149 150 140 136 129 125 122 123 123 119 118 115 118 115 107 98 87 61
99 102 102 112 126 142 143 140 123 100 90 59 38 43 20 55 56 30 18 50 86 117 110 102 80 83 97 80 55 138 71 160 195 214 195 145 160 157 149 148 141 139 135 129 127 125 126 121 116 112 110 98 46 1
87 106 110 105 104 111 120 159 180 174 48 51 29 51 59 80 60 71 90 93 90 114 104 96 77 82 59 106 72 123 156 211 232 135 124 151 166 161 154 151 149 145 138 132 137 141 136 134 127 125 134 334 327 325
93 101 100 88 105 141 125 107 127 97 73 66 48 71 67 62 36 43 70 69 89 105 92 71 98 91 89 121 156 192 203 198 128 105 136 158 162 159 155 157 152 147 149 144 139 152 158 161 163 190 273 298 314 322
114 94 96 90 87 89 120 126 61 51 57 56 51 71 78 76 71 66 75 60 89 56 56 45 108 62 127 145 145 336 44 75 112 126 139 153 155 158 164 157 157 154 143 139 136 147 171 192 218 264 313 317 334 332
89 96 102 100 96 94 83 67 71 63 64 50 69 40 66 79 81 63 59 66 59 62 43 58 113 129 188 140 119 118 104 108 118 128 129 137 149 159 157 153 152 149 161 174 179 175 185 184 56 353 329 324 337 332
84 91 97 91 51 63 64 52 54 81 58 58 59 69 68 69 67 66 67 71 82 88 93 54 36 50 56 39 87 128 135 131 126 131 133 145 151 152 147 157 171 165 150 146 142 149 159 257 304 324 323 328 330 331
76 73 83 64 28 71 70 43 52 70 65 57 53 47 57 61 61 53 54 45 39 49 47 33 28 19 27 37 68 142 151 154 146 136 133 152 156 148 162 152 147 152 152 160 178 165 86 1 324 324 323 328 331 329
78 74 76 81 64 63 75 47 59 61 74 68 50 57 55 50 43 37 28 24 55 33 51 35 55 51 54 68 106 136 136 163 162 166 161 152 157 153 147 144 154 148 139 145 131 330 321 317 314 323 325 327 324 328
55 75 64 53 66 67 65 40 65 61 61 73 46 44 48 40 42 20 18 50 59 39 25 12 27 55 63 61 62 107 139 158 172 164 165 162 146 145 141 141 140 140 148 164 284 305 314 313 319 324 325 322 328 327
65 57 54 42 69 59 51 32 69 33 64 56 39 63 56 49 20 359 73 63 66 15 16 28 40 60 79 83 100 98 102 111 121 136 148 155 162 156 146 146 144 137 153 303 312 314 314 320 321 326 325 327 328 325
51 50 37 44 45 67 53 43 42 57 66 42 57 71 46 35 6 49 67 60 20 21 32 34 41 54 55 67 70 76 84 102 110 110 106 115 121 117 138 156 178 256 303 314 317 322 322 323 325 326 322 324 323 321
63 20 33 45 32 55 58 52 28 54 63 40 88 88 68 325 63 54 59 57 26 27 28 34 48 63 73 72 69 78 93 96 102 118 130 128 115 110 97 35 329 323 331 332 325 327 324 323 322 319 319 320 315 316
68 27 38 28 34 35 31 62 43 35 35 50 60 57 334 53 73 69 66 24 27 21 21 26 29 43 66 86 77 77 88 93 73 100 121 128 128 119 91 72 37 319 329 327 327 325 321 317 314 313 316 317 314 314
60 46 40 38 43 57 91 76 69 52 52 36 37 360 280 120 89 78 100 31 40 29 34 42 55 61 67 65 68 74 86 95 107 98 96 56 19 355 340 331 323 318 322 321 320 317 314 313 314 314 312 311 308 305
57 37 49 13 60 48 73 48 38 33 40 3 317 24 18 20 66 67 70 42 47 34 29 35 43 58 73 84 84 77 71 60 51 38 15 355 350 340 334 330 323 318 314 315 317 317 317 314 311 309 305 303 305 307
45 11 32 35 44 54 43 33 47 46 3 337 342 66 77 70 78 78 360 38 62 76 46 33 29 30 39 50 58 58 57 61 56 29 16 3 343 325 319 321 321 320 320 319 319 319 317 314 311 306 305 306 306 309
33 12 37 39 39 60 61 28 42 45 44 60 91 101 90 95 64 97 90 80 51 36 28 23 32 57 60 56 34 22 18 9 359 348 337 323 314 313 317 319 318 319 320 320 319 319 318 315 316 316 308 307 308 304
9 11 51 40 59 59 18 20 53 81 75 58 66 88 115 128 90 58 55 44 31 46 55 47 47 57 56 44 23 2 349 335 335 331 326 320 317 318 316 312 315 314 317 316 316 317 313 314 314 309 306 305 307 310
25 36 10 2 74 8 20 43 12 55 99 92 77 72 102 115 86 28 44 65 42 48 58 57 51 30 9 350 341 335 328 324 325 325 324 322 320 316 313 313 314 314 315 313 314 313 311 309 309 308 306 306 305 309
25 19 18 6 9 11 5 359 80 116 85 82 78 71 61 56 81 64 34 41 57 72 64 38 4 345 337 333 331 328 325 323 323 322 321 321 319 317 317 316 315 312 312 313 311 309 306 305 304 304 305 305 306 309
Height
1266 1274 1280 1283 1288 1295 1300 1305 1310 1317 1328 1336 1344 1354 1365 1376 1386 1395 1398 1399 1403 1408 1417 1421 1426 1429 1432 1434 1443 1452 1459 1463 1464 1469 1470 1469 1474 1472 1472 1467 1479 1483 1488 1497 1492 1503 1498 1476 1478 1482 1481 1479 1480 1481
1266 1273 1278 1282 1284 1289 1296 1301 1308 1317 1324 1335 1345 1355 1366 1376 1388 1395 1399 1399 1402 1408 1419 1421 1423 1427 1432 1435 1437 1447 1445 1450 1455 1457 1466 1470 1480 1483 1473 1475 1472 1477 1472 1474 1477 1474 1475 1477 1478 1479 1481 1481 1481 1480
1269 1271 1273 1277 1280 1286 1293 1300 1310 1320 1328 1337 1348 1358 1368 1378 1389 1393 1399 1401 1404 1412 1420 1424 1427 1428 1430 1432 1435 1441 1446 1448 1451 1454 1461 1466 1476 1471 1484 1471 1468 1470 1475 1475 1477 1470 1472 1476 1478 1479 1480 1481 1480 1479
1268 1273 1275 1282 1286 1294 1303 1311 1317 1324 1333 1343 1352 1361 1370 1379 1388 1393 1401 1401 1406 1410 1418 1426 1426 1429 1430 1432 1434 1437 1440 1445 1449 1454 1458 1466 1470 1467 1469 1467 1468 1471 1474 1472 1474 1472 1473 1475 1479 1481 1481 1480 1479 1478
1276 1281 1285 1290 1297 1302 1308 1314 1321 1329 1337 1345 1353 1362 1372 1381 1391 1398 1401 1402 1405 1411 1418 1425 1428 1430 1430 1431 1434 1437 1440 1443 1448 1454 1458 1461 1463 1468 1473 1472 1470 1473 1471 1475 1475 1478 1480 1479 1480 1482 1480 1480 1480 1479
1286 1290 1295 1299 1303 1308 1313 1319 1325 1332 1339 1347 1356 1365 1375 1386 1396 1401 1404 1404 1405 1409 1416 1424 1431 1433 1432 1433 1436 1439 1442 1445 1447 1450 1457 1459 1462 1464 1471 1466 1474 1477 1478 1480 1478 1480 1481 1482 1482 1482 1482 1481 1481 1480
1300 1303 1305 1308 1310 1312 1316 1321 1328 1335 1342 1351 1360 1369 1380 1390 1396 1399 1401 1403 1406 1411 1414 1425 1429 1433 1434 1436 1438 1441 1443 1446 1447 1452 1458 1459 1462 1463 1469 1463 1475 1478 1479 1480 1480 1479 1480 1482 1484 1484 1483 1481 1480 1480
1314 1315 1316 1317 1319 1319 1321 1326 1332 1339 1347 1356 1365 1374 1386 1392 1398 1401 1400 1405 1409 1411 1413 1420 1429 1433 1434 1437 1441 1442 1444 1446 1451 1456 1460 1462 1465 1466 1464 1474 1477 1479 1478 1481 1481 1481 1482 1484 1485 1486 1486 1485 1485 1486
1324 1326 1327 1329 1331 1332 1334 1337 1342 1348 1355 1363 1372 1382 1394 1399 1401 1402 1402 1409 1410 1412 1411 1416 1423 1431 1435 1439 1442 1444 1446 1451 1456 1458 1460 1462 1466 1465 1472 1475 1478 1479 1480 1481 1482 1483 1484 1485 1486 1487 1488 1489 1489 1490
1335 1337 1339 1342 1345 1348 1351 1354 1357 1361 1367 1374 1384 1390 1395 1397 1400 1404 1408 1412 1410 1409 1410 1419 1423 1428 1435 1439 1444 1447 1449 1452 1455 1461 1462 1461 1468 1474 1475 1476 1477 1478 1479 1480 1481 1483 1485 1486 1489 1491 1492 1492 1493 1494
1346 1348 1349 1352 1354 1358 1361 1365 1367 1371 1375 1378 1384 1390 1397 1401 1407 1411 1411 1410 1410 1413 1418 1423 1424 1427 1436 1438 1444 1448 1450 1454 1454 1456 1459 1462 1466 1472 1474 1475 1476 1477 1478 1480 1481 1485 1488 1489 1490 1492 1493 1494 1494 1494
1355 1357 1359 1361 1363 1364 1367 1369 1371 1374 1377 1380 1383 1395 1401 1404 1405 1410 1415 1415 1412 1417 1423 1426 1429 1432 1436 1439 1443 1449 1452 1454 1451 1457 1458 1456 1468 1471 1474 1476 1478 1480 1481 1483 1486 1488 1490 1492 1493 1493 1494 1494 1494 1494
1363 1365 1366 1368 1370 1372 1372 1372 1375 1378 1381 1384 1389 1395 1398 1405 1407 1409 1415 1415 1419 1422 1424 1426 1430 1433 1437 1440 1445 1448 1448 1450 1454 1457 1452 1460 1466 1470 1474 1477 1480 1482 1484 1486 1488 1489 1491 1491 1492 1493 1493 1494 1494 1493
1369 1370 1371 1372 1374 1377 1380 1383 1383 1384 1385 1390 1397 1403 1407 1409 1416 1418 1418 1419 1424 1425 1426 1428 1431 1434 1439 1442 1446 1442 1457 1455 1452 1451 1448 1462 1465 1469 1473 1477 1480 1483 1485 1487 1489 1490 1491 1492 1492 1493 1493 1493 1494 1493
1374 1375 1377 1378 1379 1381 1383 1384 1387 1389 1393 1401 1406 1412 1418 1423 1423 1423 1423 1424 1426 1426 1428 1430 1433 1436 1440 1443 1446 1451 1453 1447 1444 1444 1454 1460 1465 1469 1474 1478 1481 1483 1486 1488 1490 1490 1491 1491 1492 1492 1493 1493 1493 1491
1380 1381 1382 1384 1384 1386 1387 1389 1391 1395 1404 1412 1418 1422 1423 1423 1424 1424 1425 1426 1428 1429 1430 1432 1435 1437 1442 1442 1444 1440 1440 1437 1448 1453 1457 1461 1465 1471 1476 1479 1483 1485 1487 1488 1488 1489 1490 1490 1491 1492 1492 1491 1490 1489
1386 1385 1389 1389 1389 1390 1391 1393 1397 1405 1414 1420 1426 1426 1426 1428 1430 1431 1430 1431 1431 1432 1434 1435 1433 1438 1443 1441 1443 1444 1445 1449 1453 1456 1460 1463 1466 1471 1475 1478 1481 1483 1486 1487 1488 1489 1489 1490 1491 1491 1490 1489 1488 1486
1391 1392 1394 1394 1395 1395 1396 1400 1410 1418 1425 1428 1430 1431 1431 1432 1433 1434 1434 1434 1434 1435 1437 1439 1441 1441 1440 1441 1443 1450 1453 1454 1457 1459 1462 1466 1470 1473 1477 1480 1482 1484 1485 1485 1487 1488 1489 1490 1490 1490 1489 1487 1486 1484
1397 1398 1398 1399 1398 1398 1404 1413 1417 1425 1432 1433 1434 1434 1435 1437 1438 1438 1438 1438 1438 1439 1441 1442 1442 1441 1445 1449 1452 1453 1455 1456 1459 1462 1465 1468 1472 1474 1477 1479 1480 1482 1484 1486 1487 1488 1488 1487 1487 1486 1485 1484 1482 1480
1402 1402 1402 1401 1401 1403 1413 1422 1425 1429 1435 1439 1439 1440 1441 1442 1442 1442 1441 1441 1442 1442 1446 1449 1453 1455 1455 1455 1455 1456 1457 1459 1461 1464 1468 1470 1472 1475 1477 1479 1482 1483 1484 1484 1484 1485 1486 1486 1485 1483 1482 1480 1478 1476
1405 1405 1405 1404 1404 1411 1423 1429 1432 1437 1439 1442 1443 1443 1445 1445 1445 1445 1445 1446 1447 1454 1457 1459 1459 1459 1458 1458 1457 1458 1460 1462 1464 1466 1467 1470 1473 1475 1477 1479 1480 1482 1484 1484 1485 1484 1483 1483 1481 1480 1478 1476 1474 1472
1408 1408 1407 1408 1414 1423 1431 1436 1439 1441 1443 1445 1446 1447 1448 1449 1450 1451 1451 1452 1458 1463 1464 1463 1463 1463 1462 1461 1461 1461 1462 1462 1463 1464 1466 1469 1472 1474 1477 1479 1480 1480 1481 1482 1482 1481 1481 1479 1478 1476 1474 1472 1470 1469
1413 1412 1414 1419 1424 1432 1443 1441 1443 1445 1447 1450 1450 1450 1452 1454 1455 1455 1457 1461 1466 1468 1467 1465 1465 1464 1464 1464 1463 1463 1464 1465 1465 1466 1468 1469 1471 1473 1475 1476 1478 1479 1480 1479 1479 1478 1477 1476 1474 1472 1470 1468 1467 1465
1417 1420 1425 1430 1436 1442 1444 1446 1448 1449 1450 1452 1451 1453 1456 1458 1458 1458 1460 1469 1473 1472 1470 1469 1468 1468 1467 1466 1466 1466 1467 1468 1468 1469 1471 1472 1473 1474 1475 1475 1476 1477 1477 1477 1477 1476 1474 1472 1470 1469 1467 1465 1464 1462
1427 1439 1440 1443 1445 1447 1448 1451 1452 1451 1453 1455 1454 1456 1459 1460 1459 1462 1466 1474 1475 1474 1473 1472 1471 1470 1471 1470 1470 1470 1470 1470 1470 1471 1472 1473 1474 1474 1475 1476 1476 1476 1475 1475 1474 1472 1471 1469 1467 1465 1463 1462 1460 1458
1441 1449 1450 1451 1453 1452 1453 1452 1456 1458 1457 1456 1459 1461 1462 1461 1462 1467 1474 1478 1478 1477 1476 1475 1475 1473 1472 1472 1472 1472 1472 1472 1473 1473 1473 1474 1475 1475 1476 1476 1477 1475 1473 1472 1470 1469 1467 1465 1463 1461 1460 1459 1458 1455
1452 1456 1457 1457 1457 1457 1458 1460 1461 1460 1459 1459 1461 1462 1461 1460 1465 1477 1480 1480 1480 1479 1477 1476 1476 1476 1475 1474 1474 1474 1474 1474 1474 1474 1475 1475 1475 1475 1475 1474 1473 1472 1470 1468 1467 1465 1464 1461 1459 1458 1457 1456 1454 1452
1460 1461 1460 1462 1461 1461 1462 1462 1462 1464 1465 1466 1464 1464 1464 1468 1475 1482 1482 1482 1481 1480 1479 1478 1478 1477 1477 1476 1476 1476 1476 1476 1476 1475 1475 1475 1474 1473 1472 1471 1470 1468 1467 1465 1463 1461 1459 1457 1455 1455 1454 1451 1449 1446
1464 1464 1465 1465 1464 1465 1466 1467 1467 1469 1471 1469 1467 1469 1475 1479 1481 1482 1482 1481 1482 1482 1481 1480 1479 1479 1478 1478 1478 1477 1477 1477 1477 1477 1477 1477 1476 1474 1471 1469 1467 1465 1463 1461 1459 1457 1455 1453 1451 1450 1448 1445 1443 1441
1468 1467 1467 1467 1467 1467 1471 1472 1472 1472 1472 1472 1473 1476 1479 1481 1481 1481 1481 1481 1481 1481 1481 1480 1480 1480 1480 1481 1479 1478 1478 1477 1477 1477 1475 1474 1473 1470 1468 1466 1463 1462 1459 1457 1455 1453 1451 1449 1447 1446 1445 1443 1441 1438
1470 1469 1469 1469 1470 1472 1472 1472 1473 1473 1474 1474 1475 1477 1479 1481 1482 1482 1482 1482 1482 1482 1482 1482 1481 1480 1480 1480 1480 1480 1479 1477 1476 1474 1473 1471 1469 1467 1465 1462 1460 1458 1456 1454 1452 1450 1448 1446 1444 1443 1441 1439 1436 1433
1472 1472 1472 1471 1472 1473 1473 1473 1473 1473 1475 1476 1478 1479 1481 1482 1484 1485 1484 1484 1484 1483 1482 1483 1483 1482 1482 1481 1480 1479 1478 1476 1474 1471 1469 1467 1465 1463 1461 1459 1457 1454 1452 1450 1448 1446 1444 1442 1440 1438 1436 1434 1432 1430
1474 1474 1474 1474 1473 1473 1474 1474 1474 1475 1476 1478 1480 1481 1482 1483 1486 1487 1485 1485 1485 1484 1484 1484 1483 1483 1482 1480 1479 1477 1475 1473 1470 1468 1466 1463 1461 1459 1457 1455 1453 1451 1448 1446 1444 1442 1440 1438 1436 1434 1432 1430 1428 1426